Other Public Products
Issued by NWS Charleston, SC

Home | Current Version | Previous Version | Text Only | Print | Product List | Glossary On
Versions: 1 2 3 4 5 6 7 8 9 10 11 12 13 14 15 16 17 18 19 20 21 22 23 24 25 26 27 28 29 30 31 32 33 34 35 36 37 38 39 40 41 42 43 44 45 46 47 48 49 50
000
FPUS82 KCHS 231227
OPUCHS

TEST...KCHS/KSAV Gateway Observations...TEST
National Weather Service Charleston SC
700 AM EST TUE JAN 23 2018

NOTE: "fair" indicates few or no clouds below 12,000 feet with no
significant weather and/or obstructions to visibility.

SCZ050-WAZ558-NCZ071-TXZ119-213-PAZ071-DCZ001-FLZ074-172-MI076-
NYZ176-178-MAZ016-IL014-TNZ027-NJZ106-GAZ044-MD014-231300-

...Gateway Observations for Charleston International...

CITY           SKY/WX    TMP DP  RH WIND       PRES   REMARKS
Chas Airport   CLOUDY    65  62  90 SW17      29.92F
6HR MIN TEMP:  64; 6HR MAX TEMP:  69; 6HR PCP:  0.33;

Seattle        CLOUDY    41  33  73 E7        30.13F
6HR MIN TEMP:  40; 6HR MAX TEMP:  42;

Charlotte      CLOUDY    63  60  90 SW14G21   29.78S
6HR MIN TEMP:  61; 6HR MAX TEMP:  63; 6HR PCP:  0.30;

Dallas DFW     MOCLDY    39  19  44 NW12      30.19R WCI  32
6HR MIN TEMP:  39; 6HR MAX TEMP:  49;

Dallas Love    PTCLDY    36  24  62 NW3       30.21R
6HR MIN TEMP:  35; 6HR MAX TEMP:  43;

Philladelphia  CLOUDY    56  52  86 S14G22    29.74F
6HR MIN TEMP:  49; 6HR MAX TEMP:  56; 6HR PCP:  0.06;

Wash National  LGT RAIN  56  56 100 S16       29.67F FOG
6HR MIN TEMP:  51; 6HR MAX TEMP:  56; 6HR PCP:  0.05;

Baltimore      LGT RAIN  51  51 100 SE8       29.68F FOG
6HR MIN TEMP:  47; 6HR MAX TEMP:  52; 6HR PCP:  0.04;

Miami          CLOUDY    75  72  90 SE7       30.06S
6HR MIN TEMP:  73; 6HR MAX TEMP:  75;

Detroit        LGT RAIN  37  34  89 SW16      29.56R WCI  28
6HR MIN TEMP:  37; 6HR MAX TEMP:  47; 6HR PCP:  0.09;

Newark         LGT RAIN  46  46 100 CALM      29.77F VSB 1/4
6HR MIN TEMP:  40; 6HR MAX TEMP:  46; 6HR PCP:  0.06;

Laguardia      LGT RAIN  43  42  97 CALM      29.78F FOG
6HR MIN TEMP:  36; 6HR MAX TEMP:  39; 6HR PCP:  0.03;

J F K          LGT RAIN  47  47 100 S20       29.79F FOG
6HR MIN TEMP:  40; 6HR MAX TEMP:  47; 6HR PCP:  0.01;

Boston Logan   FOG       32  32 100 N5        29.98S VSB 1/2 WCI  27
6HR MIN TEMP:  32; 6HR MAX TEMP:  39; 6HR PCP: TRACE;

Ft. Lauderdale MOCLDY    74  73  97 SE8       30.05R
6HR MIN TEMP:  73; 6HR MAX TEMP:  74;

Chicago O`Hare LGT SNOW  32  29  88 NW12      29.61R FOG     WCI  23
6HR MIN TEMP:  33; 6HR MAX TEMP:  39; 6HR PCP:  0.06;

Chicago Midway LGT SNOW  33  32  96 NW7       29.61R FOG     WCI  27
6HR MIN TEMP:  33; 6HR MAX TEMP:  38; 6HR PCP:  0.05;

Houston Bush   PTCLDY    40  31  70 NW3       30.22R
6HR MIN TEMP:  39; 6HR MAX TEMP:  44;

Houston Hobby  FAIR      42  34  73 W5        30.22R
6HR MIN TEMP:  40; 6HR MAX TEMP:  51;

Nashville      CLOUDY    45  28  51 SW6       29.89R
6HR MIN TEMP:  42; 6HR MAX TEMP:  51;

Atlanta        FAIR      47  33  58 W12       29.94R
6HR MIN TEMP:  47; 6HR MAX TEMP:  63;


$$

GAZ044-118-TXZ119-213-NCZ071-DCZ001-MDZ014-506-PAZ021-071-NJZ106-
NYZ176-178-MAZ106-OHZ011-021-055-MIZ076-KYZ091-ILZ014-INZ047-
MNZ060-ONZ431-231300-

...Gateway Observations for Savannah International...

CITY           SKY/WX    TMP DP  RH WIND       PRES   REMARKS
Savannah Arpt  CLOUDY    67  63  87 SW13      29.94S
6HR MIN TEMP:  65; 6HR MAX TEMP:  69; 6HR PCP:  0.05;

Atlanta        FAIR      47  33  58 W12       29.94R
6HR MIN TEMP:  47; 6HR MAX TEMP:  63;

Charlotte      CLOUDY    63  60  90 SW14G21   29.78S
6HR MIN TEMP:  61; 6HR MAX TEMP:  63; 6HR PCP:  0.30;

Dallas DFW     MOCLDY    39  19  44 NW12      30.19R WCI  32
6HR MIN TEMP:  39; 6HR MAX TEMP:  49;

Houston Bush   PTCLDY    40  31  70 NW3       30.22R
6HR MIN TEMP:  39; 6HR MAX TEMP:  44;

Wash National  LGT RAIN  56  56 100 S16       29.67F FOG
6HR MIN TEMP:  51; 6HR MAX TEMP:  56; 6HR PCP:  0.05;

Wash Dulles    LGT RAIN  58  58 100 S20G32    29.63F
6HR MIN TEMP:  53; 6HR MAX TEMP:  58; 6HR PCP:  0.13;

Baltimore      LGT RAIN  51  51 100 SE8       29.68F FOG
6HR MIN TEMP:  47; 6HR MAX TEMP:  52; 6HR PCP:  0.04;

Philadelphia   CLOUDY    56  52  86 S14G22    29.74F
6HR MIN TEMP:  49; 6HR MAX TEMP:  56; 6HR PCP:  0.06;

Newark         LGT RAIN  46  46 100 CALM      29.77F VSB 1/4
6HR MIN TEMP:  40; 6HR MAX TEMP:  46; 6HR PCP:  0.06;

Laguardia      LGT RAIN  43  42  97 CALM      29.78F FOG
6HR MIN TEMP:  36; 6HR MAX TEMP:  39; 6HR PCP:  0.03;

J F K          LGT RAIN  47  47 100 S20       29.79F FOG
6HR MIN TEMP:  40; 6HR MAX TEMP:  47; 6HR PCP:  0.01;

Boston         FOG       32  32 100 N5        29.98S VSB 1/2 WCI  27
6HR MIN TEMP:  32; 6HR MAX TEMP:  39; 6HR PCP: TRACE;

Pittsburg      CLOUDY    48  41  76 SW6       29.61F
6HR MIN TEMP:  47; 6HR MAX TEMP:  54; 6HR PCP:  0.15;

Akron          CLOUDY    45  40  82 SW9       29.59S
6HR MIN TEMP:  44; 6HR MAX TEMP:  52; 6HR PCP:  0.09;

Cleveland      FAIR      43  38  82 S8        29.58F
                                      6HR PCP:  0.10;

Cincinnati     CLOUDY    39  32  76 SW14G22   29.71R WCI  31
6HR MIN TEMP:  39; 6HR MAX TEMP:  46; 6HR PCP: TRACE;

Columbus       CLOUDY    42  34  74 W15G22    29.68R
Detroit        LGT RAIN  37  34  89 SW16      29.56R WCI  28
6HR MIN TEMP:  37; 6HR MAX TEMP:  47; 6HR PCP:  0.09;

Chicago O`Hare LGT SNOW  32  29  88 NW12      29.61R FOG     WCI  23
6HR MIN TEMP:  33; 6HR MAX TEMP:  39; 6HR PCP:  0.06;

Minneapolis    CLOUDY    20  15  81 N16G24    29.95R WCI   6
6HR MIN TEMP:  19; 6HR MAX TEMP:  26; 6HR PCP:  0.07;

Indianapolis   FLURRIES  34  32  92 SW20G25   29.69R WCI  23
6HR MIN TEMP:  34; 6HR MAX TEMP:  41; 6HR PCP:  0.06;

Toronto Canada FOG       36  36 100 S3        29.48  VSB 1/8

$$




USA.gov is the U.S. government's official web portal to all federal, state and local government web resources and services.